Custer, SD

1:45 PM MDT on August 25, 2016 (GMT -0600)
Custer County

Weather History for KCUT - February, 2014

Change the Weather History Date:

Wednesday, February 19, 2014

  Actual Average Record
Temperature  
Mean Temperature 33 °F 26 °F  
Max Temperature 46 °F 37 °F 55 °F (1965)
Min Temperature 19 °F 16 °F -12 °F (1944)
Degree Days  
Heating Degree Days 32 39  
Month to date heating degree days 906 760  
Since 1 July heating degree days 5416 5495  
Cooling Degree Days 0 0  
Month to date cooling degree days 0 0  
Year to date cooling degree days 0 0  
Moisture  
Dew Point 13 °F    
Average Humidity 46    
Maximum Humidity 63    
Minimum Humidity 28    
Precipitation  
Precipitation 0.00 in 0.02 in 0.32 in (1986)
Month to date precipitation 0.48 0.37  
Year to date precipitation 0.93 0.70  
Sea Level Pressure  
Sea Level Pressure 29.61 in    
Wind  
Wind Speed 12 mph (West)    
Max Wind Speed 23 mph    
Max Gust Speed 35 mph    
Visibility 10 miles    
Events      
T = Trace of Precipitation, MM = Missing Value Source: NWS Daily Summary

Daily Weather History Graph

Daily Weather History Graph

Search for Another Location

Airport or City:

Trip Planner

Search our weather history database for the weather conditions in past years. The results will help you decide how hot, cold, wet, or windy it might be!

Date:

Astronomy

Feb. 19, 2014 Rise Set
Actual Time 6:47 AM MST 5:30 PM MST
Civil Twilight 6:17 AM MST 5:59 PM MST
Nautical Twilight 5:44 AM MST 6:32 PM MST
Astronomical Twilight 5:11 AM MST 7:06 PM MST
Moon 10:36 PM MST (2/19) 8:44 AM MST (2/19)
Length of Visible Light 11h 41m
Length of Day
10h 43m
Waning Gibbous, 79% of the Moon is Illuminated
Feb 19
Waning Gibbous
Feb 22
Last Quarter
Mar 1
New
Mar 8
First Quarter
Mar 16
Full

Hourly Weather History & Observations

Time (MST) Temp. Windchill Dew Point Humidity Pressure Visibility Wind Dir Wind Speed Gust Speed Precip Events Conditions
12:53 AM 23.0 °F 18.4 °F 9.0 °F 55% 29.82 in 10.0 mi WSW 3.5 mph - N/A   Clear
1:53 AM 24.1 °F 17.0 °F 10.0 °F 55% 29.78 in 10.0 mi SSW 5.8 mph - N/A   Clear
2:53 AM 24.1 °F 17.0 °F 10.9 °F 57% 29.73 in 10.0 mi SSW 5.8 mph - N/A   Clear
3:53 AM 27.0 °F 18.7 °F 12.0 °F 53% 29.67 in 10.0 mi SW 8.1 mph - N/A   Clear
4:53 AM 30.9 °F 22.2 °F 15.1 °F 52% 29.63 in 10.0 mi WSW 10.4 mph 17.3 mph N/A   Clear
5:53 AM 32.0 °F 21.6 °F 16.0 °F 52% 29.61 in 10.0 mi WSW 15.0 mph 26.5 mph N/A   Clear
6:53 AM 30.9 °F 20.7 °F 17.1 °F 57% 29.60 in 10.0 mi WSW 13.8 mph 21.9 mph N/A   Clear
7:53 AM 32.0 °F 22.1 °F 17.1 °F 54% 29.59 in 10.0 mi WSW 13.8 mph 25.3 mph N/A   Clear
8:53 AM 36.0 °F 26.3 °F 18.0 °F 48% 29.56 in 10.0 mi West 16.1 mph 24.2 mph N/A   Clear
9:53 AM 37.0 °F 27.0 °F 18.0 °F 46% 29.56 in 10.0 mi West 18.4 mph 27.6 mph N/A   Clear
10:53 AM 39.0 °F 30.3 °F 18.0 °F 43% 29.53 in 10.0 mi WSW 16.1 mph 27.6 mph N/A   Clear
11:53 AM 44.1 °F 37.1 °F 18.0 °F 35% 29.48 in 10.0 mi WSW 15.0 mph 28.8 mph N/A   Clear
12:53 PM 45.0 °F 36.9 °F 19.9 °F 37% 29.46 in 10.0 mi West 20.7 mph 28.8 mph N/A   Clear
1:53 PM 44.1 °F 38.6 °F 21.0 °F 40% 29.45 in 10.0 mi West 10.4 mph 20.7 mph N/A   Mostly Cloudy
2:53 PM 43.0 °F 36.8 °F 21.0 °F 42% 29.46 in 10.0 mi West 11.5 mph - N/A   Clear
3:53 PM 43.0 °F 37.7 °F 21.0 °F 42% 29.47 in 10.0 mi North 9.2 mph - N/A   Scattered Clouds
4:53 PM 30.9 °F 20.7 °F 19.9 °F 64% 29.54 in 10.0 mi NNW 13.8 mph 25.3 mph N/A   Overcast
5:53 PM 28.0 °F 18.1 °F 17.1 °F 63% 29.61 in 10.0 mi NW 11.5 mph 20.7 mph N/A   Overcast
6:53 PM 30.0 °F 20.0 °F 1.0 °F 29% 29.63 in 10.0 mi NW 12.7 mph 20.7 mph N/A   Overcast
7:53 PM 28.0 °F 20.8 °F 3.9 °F 36% 29.67 in 10.0 mi NW 6.9 mph - N/A   Mostly Cloudy
8:53 PM 27.0 °F 16.7 °F 6.1 °F 41% 29.67 in 10.0 mi NNW 11.5 mph 18.4 mph N/A   Mostly Cloudy
9:53 PM 26.1 °F 16.8 °F 1.9 °F 35% 29.67 in 10.0 mi WNW 9.2 mph 19.6 mph N/A   Clear
10:53 PM 25.0 °F 14.8 °F 1.9 °F 37% 29.68 in 10.0 mi NW 10.4 mph 21.9 mph N/A   Clear
11:53 PM 24.1 °F 13.1 °F 3.9 °F 42% 29.67 in 10.0 mi WNW 11.5 mph 18.4 mph N/A   Clear